SCP
0 0 0 0 0 0 0 0 0 0 0 0 0 0 0 0 0 0 0 0 0 0 0 0 0 0 0 0 0 0 0 0 0 0 0 0 0 0 0 0 0 0 0 0 0 0 0 0 0 0 0 0 0 0
0 0 0 0 0 0 0 0 0 0 0 0 0 0 0 0 0 0 0 0 0 0 0 0 0 0 0 0 0 0 0 0 0 0 0 0 0 0 0 0 0 0 0 0 0 0 0 0 0 0 0 0 0 0
0 0 0 0 0 0 0 0 0 0 0 0 0 0 0 0 0 0 0 0 0 0 0 0 0 0 0 0 0 0 0 0 0 0 0 0 0 0 0 0 0 0 0 0 0 0 0 0 0 0 0 0 0 0
0 0 0 0 0 0 0 0 0 0 0 0 0 0 0 0 0 0 0 0 0 0 0 0 0 0 0 0 0 0 0 0 0 0 0 0 0 0 0 0 0 0 0 0 0 0 0 0 0 0 0 0 0 0
0 0 0 0 0 0 0 0 0 0 0 0 0 0 0 0 0 0 0 0 0 0 0 0 0 0 0 0 0 0 0 0 0 0 0 0 0 0 0 0 0 0 0 0 0 0 0 0 0 0 0 0 0 0
0 0 0 0 0 0 0 0 0 0 0 0 0 0 0 0 0 0 0 0 0 0 0 0 0 0 0 0 0 0 0 0 0 0 0 0 0 0 0 0 0 0 0 0 0 0 0 0 0 0 0 0 0 0
0 0 0 0 0 0 0 0 0 0 0 0 0 0 0 0 0 0 0 0 0 0 0 0 0 0 0 0 0 0 0 0 0 0 0 0 0 0 0 0 0 0 0 0 0 0 0 0 0 0 0 0 0 0
0 0 0 0 0 0 0 0 0 0 0 0 0 0 0 0 0 0 0 0 0 0 0 0 0 0 0 0 0 0 0 0 0 0 0 0 0 0 0 0 0 0 0 0 0 0 0 0 0 0 0 0 0 0
0 -0 0 0 -0 0 0 0 0 0 0 -0 0 0 0 0 0 0 0 0 0 0 0 0 0 0 0 0 0 0 0 0 0 0 0 0 0 0 0 0 0 0 0 0 0 0 0 0 0 0 0 0 0 0
0 0 0 0 0 0 0 0 0 0 0 0 0 0 0 0 0 0 0 0 0 0 0 0 0 0 0 0 0 0 0 0 0 0 0 0 0 0 0 0 0 0 0 0 0 0 0 0 0 0 0 0 0 0
0 0 0 0 0 0 0 0 0 0 0 0 0 0 0 0 0 0 0 0 0 0 0 0 0 0 0 0 0 0 0 0 0 0 0 0 0 0 0 0 0 0 0 0 0 0 0 0 0 0 0 0 0 0
0 0 -0 0 0 0 0 0 0 0 0 0 0 0 0 0 0 0 0 0 0 0 0 0 0 0 0 0 0 0 0 0 0 0 0 0 0 0 0 0 0 0 0 0 0 0 0 0 0 0 0 0 0 0
0 0 0 0 0 0 0 0 0 0 0 0 0 0 0 0 0 0 0 0 0 0 0 0 0 0 0 0 0 0 0 0 0 0 0 0 0 0 0 0 0 0 0 0 0 0 0 0 0 0 0 0 0 0
0 0 0 0 0 0 0 0 0 0 0 0 0 0 0 0 0 0 0 0 0 0 0 0 0 0 0 0 0 0 0 0 0 0 0 0 0 0 0 0 0 0 0 0 0 0 0 0 0 0 0 0 0 0
0 0 0 0 0 0 0 0 0 0 0 0 0 0 0 0 0 0 0 0 0 0 0 0 0 0 0 0 0 0 0 0 0 0 0 0 0 0 0 0 0 0 0 0 0 0 0 0 0 0 0 0 0 0
0 0 0 0 0 0 0 0 0 0 0 0 0 0 0 0 0 0 0 0 0 0 0 0 0 0 0 0 0 0 0 0 0 0 0 0 0 0 0 0 0 0 0 0 0 0 0 0 0 0 0 0 0 0
0 0 0 0 0 0 0 0 0 0 0 0 0 0 0 0 0 0 0 0 0 0 0 0 0 0 0 0 0 0 0 0 0 0 0 0 0 0 0 0 0 0 0 0 0 0 0 0 0 0 0 0 0 0
0 0 0 0 0 0 0 0 0 0 0 0 0 0 0 0 0 0 0 0 0 0 0 0 0 0 0 0 0 0 0 0 0 0 0 0 0 0 0 0 0 0 0 0 0 0 0 0 0 0 0 0 0 0
0 0 0 0 0 0 0 0 0 0 0 0 0 0 0 0 0 0 0 0 0 0 0 0 0 0 0 0 0 0 0 0 0 0 0 0 0 0 0 0 0 0 0 0 0 0 0 0 0 0 0 0 0 0
0 0 0 0 0 0 0 0 0 0 0 0 0 0 0 0 0 0 0 0 0 0 0 0 0 0 0 0 0 0 0 0 0 0 0 0 0 0 0 0 0 0 0 0 0 0 0 0 0 0 0 0 0 0
0 0 0 0 0 0 0 0 0 0 0 0 0 0 0 0 0 0 0 0 0 0 0 0 0 0 0 0 0 0 0 0 0 0 0 0 0 0 0 0 0 0 0 0 0 0 0 0 0 0 0 0 0 0
0 0 0 0 0 0 0 0 0 0 0 0 0 0 0 0 0 0 0 0 0 0 0 0 0 0 0 0 0 0 0 0 0 0 0 0 0 0 0 0 0 0 0 0 0 0 0 0 0 0 0 0 0 0
0 0 0 0 0 0 0 0 0 0 0 0 0 0 0 0 0 0 0 0 0 0 0 0 0 0 0 0 0 0 0 0 0 0 0 0 0 0 0 0 0 0 0 0 0 0 0 0 0 0 0 0 0 0
0 0 0 0 0 0 0 0 0 0 0 0 0 0 0 0 0 0 0 0 0 0 0 0 0 0 0 0 0 0 0 0 0 0 0 0 0 0 0 0 0 0 0 0 0 0 0 0 0 0 0 0 0 0
0 0 0 0 0 0 0 0 0 0 0 0 0 0 0 0 0 0 0 0 0 0 0 0 0 0 0 0 0 0 0 0 0 0 0 0 0 0 0 0 0 0 0 0 0 0 0 0 0 0 0 0 0 0
0 0 0 0 0 0 0 0 0 0 0 0 0 0 0 0 0 0 0 0 0 0 0 0 0 0 0 0 0 0 0 0 0 0 0 0 0 0 0 0 0 0 0 0 0 0 0 0 0 0 0 0 0 0
0 0 0 0 0 0 0 0 0 0 0 0 0 0 0 0 0 0 0 0 0 0 0 0 0 0 0 0 0 0 0 0 0 0 0 0 0 0 0 0 0 0 0 0 0 0 0 0 0 0 0 0 0 0
0 0 0 0 0 0 0 0 0 0 0 0 0 0 0 0 0 0 0 0 0 0 0 0 0 0 0 0 0 0 0 0 0 0 0 0 0 0 0 0 0 0 0 0 0 0 0 0 0 0 0 0 0 0
0 0 0 0 0 0 0 0 0 0 0 0 0 0 0 0 0 0 0 0 0 0 0 0 0 0 0 0 0 0 0 0 0 0 0 0 0 0 0 0 0 0 0 0 0 0 0 0 0 0 0 0 0 0
0 0 0 0 0 0 0 0 0 0 0 0 0 0 0 0 0 0 0 0 0 0 0 0 0 0 0 0 0 0 0 0 0 0 0 0 0 0 0 0 0 0 0 0 0 0 0 0 0 0 0 0 0 0
0 0 0 0 0 0 0 0 0 0 0 0 0 0 0 0 0 0 0 0 0 0 0 0 0 0 0 0 0 0 0 0 0 0 0 0 0 0 0 0 0 0 0 0 0 0 0 0 0 0 0 0 0 0
0 0 0 0 0 0 0 0 0 0 0 0 0 0 0 0 0 0 0 0 0 0 0 0 0 0 0 0 0 0 0 0 0 0 0 0 0 0 0 0 0 0 0 0 0 0 0 0 0 0 0 0 0 0
0 0 0 0 0 0 0 0 0 0 0 0 0 0 0 0 0 0 0 0 0 0 0 0 0 0 0 0 0 0 0 0 0 0 0 0 0 0 0 0 0 0 0 0 0 0 0 0 0 0 0 0 0 0
Wind_Speed_500mb
58 59 56 65 58 57 56 58 53 52 54 55 52 48 44 38 39 34 29 19 27 10 7 10 12 13 16 21 9 15 12 1 5 9 8 8 6 11 5 6 15 15 16 8 5 3 18 24 13 18 11 28 35 33
59 56 60 62 59 56 57 59 58 53 53 53 55 52 49 47 46 48 38 31 30 16 7 25 35 29 28 26 30 47 5 14 20 6 2 6 4 3 6 7 2 5 14 12 21 14 1 43 15 43 35 29 32 28
65 64 60 60 58 55 54 57 61 63 65 65 49 55 52 48 48 55 54 44 41 24 22 35 34 43 39 30 31 23 14 17 19 11 11 4 7 7 10 10 4 9 11 7 9 8 12 23 33 34 39 56 53 46
68 63 66 60 61 58 57 58 59 59 58 56 56 55 50 47 49 56 64 58 51 14 6 14 25 43 39 49 33 34 16 34 25 19 9 5 6 12 6 5 8 12 19 11 5 8 10 31 39 43 50 57 52 53
60 59 57 60 64 66 63 59 54 54 61 57 57 52 53 54 50 50 57 65 62 40 13 7 17 29 35 51 49 43 33 39 30 10 5 5 9 8 2 4 9 20 13 9 9 25 23 29 48 47 46 53 58 60
46 49 49 49 60 64 62 57 56 48 51 60 55 56 53 56 51 49 34 71 74 67 11 3 12 22 26 36 53 48 44 41 28 16 8 10 12 10 7 7 40 42 19 39 21 52 46 53 55 56 58 64 65 65
40 47 52 58 59 64 59 60 58 54 46 51 57 58 59 61 53 60 14 10 69 68 15 3 6 14 38 39 36 47 45 28 25 14 10 14 9 24 6 13 54 37 42 52 61 63 43 65 49 57 52 50 51 53
47 49 48 62 71 73 61 57 56 51 54 41 35 33 36 32 44 31 42 12 37 55 15 6 6 4 25 16 10 27 22 24 15 16 6 7 15 10 12 26 45 50 53 45 59 59 67 66 59 62 58 60 61 64
47 50 45 49 72 58 53 48 46 54 51 41 36 27 28 20 15 11 9 18 49 24 11 6 12 9 28 12 14 16 20 7 19 11 9 21 7 13 20 33 38 67 62 71 66 56 54 52 54 46 43 50 57 56
30 38 33 41 51 59 53 50 50 55 51 46 46 17 13 15 19 21 15 13 19 13 11 4 13 4 17 6 4 12 12 7 9 10 22 9 13 68 44 33 56 64 67 74 63 63 65 61 58 51 46 46 48 48
17 39 48 51 63 56 55 54 49 39 39 42 15 14 19 39 28 17 9 6 5 6 19 14 21 7 22 7 6 11 5 6 6 8 12 7 9 36 63 75 89 85 79 79 74 73 64 58 56 52 49 46 42 42
29 22 40 41 60 56 49 46 48 56 24 25 21 27 30 16 13 11 11 6 7 11 11 10 19 17 19 13 7 11 7 5 10 12 7 6 14 53 58 64 81 88 88 88 85 79 67 60 54 49 39 36 35 33
25 35 43 42 37 36 39 40 40 44 40 30 12 12 11 13 12 14 14 3 8 10 25 21 6 20 12 12 6 6 11 12 14 8 8 12 34 58 63 70 72 73 75 72 71 62 53 46 39 34 31 32 32 30
15 16 25 28 27 25 27 28 30 34 28 9 10 12 11 6 7 5 9 10 10 20 45 36 12 8 11 8 6 9 8 8 9 10 14 14 46 46 36 45 52 58 62 60 54 45 41 37 34 31 31 28 26 22
18 19 17 15 15 18 21 23 29 43 18 13 12 9 9 6 4 3 8 9 9 20 47 15 10 10 4 6 8 5 8 8 11 12 8 3 8 21 27 34 41 45 43 41 38 35 34 33 30 26 23 20 17 14
21 14 14 9 8 12 18 22 25 32 8 15 9 6 3 6 4 5 9 10 15 35 23 10 7 7 9 7 10 13 13 12 9 5 13 17 15 14 15 19 22 26 29 32 32 30 26 23 21 20 17 14 11 9
16 15 2 4 8 10 14 19 14 8 4 3 4 9 8 7 9 9 9 11 29 24 4 4 10 10 5 5 6 8 9 4 8 15 19 19 16 13 9 7 9 14 20 24 24 24 23 21 18 18 17 14 10 7
2 6 12 18 18 14 15 16 8 3 8 10 3 7 10 10 12 15 13 22 13 9 6 3 5 4 7 6 3 5 9 14 13 14 15 14 11 7 2 4 11 17 21 22 22 23 22 20 18 16 13 8 5 4
4 5 9 9 12 13 10 8 4 7 5 5 8 11 8 9 15 8 10 11 14 14 12 6 2 3 4 6 6 11 17 21 17 19 14 10 6 4 6 12 16 19 20 23 23 21 20 18 15 12 9 6 5 4
16 12 5 2 19 10 8 7 7 9 4 5 9 10 11 9 10 15 13 12 14 9 13 9 6 6 6 9 13 17 19 21 17 18 14 7 2 4 7 9 10 15 20 21 19 17 15 12 10 7 5 3 2 2
19 14 5 5 5 9 10 6 9 8 9 10 12 7 9 12 10 11 15 16 19 13 6 11 9 14 12 11 11 12 12 13 12 12 16 14 4 6 9 11 13 14 13 15 13 13 10 8 5 5 5 4 4 4
18 13 8 8 6 8 12 13 10 8 7 7 7 7 10 5 8 11 10 25 13 12 14 19 21 20 14 9 9 10 11 12 11 9 8 5 8 10 12 14 14 12 11 10 10 9 7 6 5 5 6 6 5 6
21 19 8 8 8 10 6 8 6 8 5 3 4 5 6 5 8 10 12 13 11 25 27 23 22 18 13 12 12 12 12 10 10 10 10 5 9 8 10 9 8 7 4 6 5 6 7 6 7 7 7 7 6 7
17 11 14 12 17 4 5 9 8 7 8 7 6 6 6 6 7 11 8 7 17 27 29 23 24 16 11 12 14 14 13 14 15 13 12 13 7 7 8 8 7 6 6 5 4 4 6 7 8 9 10 9 9 11
10 21 15 13 16 10 11 7 9 7 7 8 5 6 5 10 6 8 5 14 31 37 34 27 22 22 21 18 17 18 18 18 19 20 21 21 17 14 12 9 6 3 2 1 4 6 8 9 10 11 12 13 14 15
16 19 13 10 11 8 7 6 8 6 5 6 6 7 7 5 9 7 4 22 28 34 33 29 27 24 27 26 24 22 20 18 17 15 17 16 13 10 9 7 4 5 7 8 10 10 11 12 14 15 16 17 19 21
12 10 15 18 9 6 6 10 11 9 9 9 6 9 6 9 8 5 14 23 29 25 22 22 22 24 25 23 21 19 18 16 14 13 13 12 12 12 11 10 11 11 12 13 13 13 15 18 20 21 22 22 23 26
12 21 11 24 14 20 6 7 9 9 6 14 3 11 7 6 1 14 11 22 18 20 21 20 19 20 21 21 19 16 13 12 11 12 11 11 11 11 12 13 14 14 14 14 16 17 18 19 22 24 27 29 28 27
13 32 12 9 10 16 15 10 6 9 12 6 4 5 6 8 13 18 22 22 20 21 22 22 24 23 25 25 24 24 21 17 10 11 11 12 10 13 17 16 17 18 19 20 22 24 24 25 27 31 33 34 34 36
18 30 11 11 10 10 13 14 13 22 32 33 32 40 42 44 48 40 39 37 37 39 37 34 30 24 24 22 21 20 22 24 23 22 21 20 24 25 26 25 25 26 27 29 29 29 30 33 35 37 41 44 46 50
22 16 8 14 9 9 13 19 25 31 36 42 46 43 38 32 48 49 45 40 37 34 31 33 30 27 26 30 31 26 23 20 27 29 29 29 31 32 32 33 34 36 39 41 42 44 46 48 49 52 54 56 57 59
21 18 7 7 4 9 9 6 7 10 12 18 14 11 10 10 11 20 54 42 35 37 34 32 34 34 32 32 32 30 31 37 42 46 43 42 42 42 43 45 44 45 47 48 49 51 52 54 55 55 57 58 59 59
7 14 14 8 5 5 12 8 3 7 7 6 5 7 10 7 7 8 12 54 45 33 34 32 33 38 44 51 45 36 37 45 50 49 47 44 43 43 45 47 52 54 55 57 57 56 56 57 59 60 61 63 64 64
Wind_Direction_500mb
271 254 244 249 241 238 238 235 234 232 229 232 237 232 231 223 224 220 220 215 215 205 231 221 195 161 159 177 149 155 102 136 101 179 165 167 161 202 128 177 175 159 163 194 84 184 269 164 116 164 190 156 171 191
264 262 248 243 240 237 236 236 234 230 231 230 225 227 222 219 213 217 219 204 205 223 270 241 233 225 218 220 187 172 206 155 165 119 152 93 142 136 145 217 147 223 193 182 186 205 80 180 201 219 241 229 220 230
256 257 252 243 239 236 239 236 233 237 237 225 221 226 220 217 216 216 220 212 202 219 257 255 241 227 226 213 210 174 215 175 187 152 144 143 189 130 160 228 139 250 166 197 109 206 214 215 228 251 256 251 256 260
249 255 245 244 238 235 240 238 234 231 234 228 219 217 221 219 214 215 216 220 212 161 197 258 234 232 227 221 220 216 226 187 176 161 118 145 164 185 192 166 185 195 142 152 265 256 198 236 244 266 268 261 263 267
238 248 246 240 239 232 235 231 229 228 232 230 226 222 225 223 224 223 223 225 223 197 194 230 231 223 218 211 216 224 221 194 168 141 106 199 149 128 336 63 254 174 183 160 207 231 230 252 273 273 268 269 271 275
246 253 252 236 235 231 229 220 227 229 227 227 225 223 222 225 224 218 219 211 219 211 221 202 225 199 199 203 214 219 213 202 188 161 180 193 169 148 135 201 250 233 224 229 221 259 258 263 270 275 274 276 278 280
261 254 249 246 234 227 220 217 225 225 228 214 219 222 222 213 204 199 196 198 205 206 201 180 290 205 206 197 200 208 208 204 207 191 183 152 176 169 127 229 251 249 251 245 249 253 256 261 260 285 283 287 287 281
269 251 254 248 238 214 218 219 214 214 222 201 196 205 204 174 205 217 205 206 188 188 186 179 235 178 181 168 154 190 191 192 214 195 177 157 142 172 233 246 251 255 256 252 252 247 256 268 275 278 283 284 281 283
261 241 241 255 199 201 202 202 204 204 200 199 197 188 181 203 202 174 245 185 178 188 174 154 157 208 166 139 149 151 167 167 190 204 189 161 172 218 220 211 221 247 239 250 263 263 260 260 265 271 275 274 273 276
245 224 219 212 215 194 197 199 194 180 181 178 173 162 161 184 162 158 161 202 206 231 172 174 130 151 162 99 103 134 178 194 195 211 151 207 230 241 236 236 250 251 256 257 250 252 254 257 261 274 276 277 273 273
247 226 227 227 193 187 186 182 182 188 180 175 148 146 141 152 156 174 190 172 215 174 174 171 170 141 182 128 159 200 168 162 185 233 182 197 256 244 239 237 246 248 251 255 256 262 267 269 271 272 274 271 262 258
52 137 172 150 150 161 163 166 164 179 161 161 142 132 147 177 179 180 178 157 173 212 176 160 178 168 155 155 120 173 168 174 222 142 158 229 248 250 250 248 249 254 256 260 264 265 265 265 265 266 255 247 244 242
35 90 100 104 115 124 144 156 169 178 176 156 154 149 170 175 212 186 170 191 182 172 170 165 157 144 131 162 126 166 181 206 114 179 218 226 241 247 248 252 252 254 258 261 261 257 252 251 250 240 237 234 231 228
85 77 98 119 132 146 159 167 176 185 176 183 173 184 189 194 255 191 185 176 200 169 164 149 124 140 149 165 160 187 186 127 193 195 225 236 244 258 255 251 252 255 255 255 250 244 238 231 227 223 220 218 218 221
97 99 108 116 151 169 177 182 184 188 197 198 180 207 191 200 121 157 145 133 153 165 154 113 96 125 152 190 187 130 171 208 203 224 231 9 300 274 269 266 258 252 247 238 232 226 220 215 211 208 203 205 213 224
76 83 81 93 132 166 189 193 196 204 217 184 188 124 75 79 318 145 154 126 140 155 135 130 143 176 191 185 184 199 172 205 239 242 339 335 326 314 291 280 270 254 237 225 215 207 203 199 194 190 189 195 203 219
43 48 352 221 238 217 205 198 205 256 313 174 107 134 150 114 164 137 129 135 150 158 151 157 191 196 115 197 207 171 201 247 321 335 340 338 344 342 315 278 237 220 202 191 189 181 178 180 179 178 180 183 194 218
287 300 286 248 232 213 188 181 188 80 59 24 29 5 62 72 108 118 110 134 150 117 109 123 3 190 183 190 231 15 357 342 346 353 343 342 352 342 349 154 168 168 168 163 166 162 158 165 169 174 179 178 192 239
127 205 257 253 205 170 164 162 146 106 90 95 86 91 71 79 81 89 128 133 127 127 132 96 104 31 61 40 5 359 351 358 330 328 346 354 5 60 119 140 148 156 156 159 154 152 152 158 164 166 171 183 208 248
169 196 223 51 183 164 128 87 114 113 124 101 99 81 86 78 88 69 73 97 94 64 45 37 40 40 355 344 338 320 329 331 328 328 326 337 359 112 120 121 140 151 155 147 146 149 154 162 169 178 198 221 241 269
230 249 261 200 163 92 92 76 72 78 96 102 110 94 82 90 65 51 38 41 61 36 56 39 8 349 339 330 338 344 340 332 329 321 311 324 268 169 160 158 165 163 148 136 141 150 162 171 182 203 215 227 236 256
204 221 175 152 89 76 77 54 85 91 84 90 75 66 63 58 39 27 47 52 57 34 5 347 353 352 1 4 5 1 359 0 0 350 351 299 210 181 168 161 158 155 147 146 154 163 179 187 200 222 234 240 251 261
140 141 99 67 88 57 38 49 68 41 89 65 70 73 41 54 45 44 72 60 64 10 2 1 359 356 9 16 13 10 12 20 35 52 83 87 143 153 157 157 151 140 149 167 177 189 197 210 227 243 251 255 258 267
114 65 40 42 34 49 40 36 41 51 56 40 49 71 34 19 37 63 75 60 3 359 8 12 10 28 42 30 24 29 39 49 54 59 75 81 84 123 132 130 130 137 143 162 188 237 249 249 251 246 243 246 261 272
87 15 23 12 18 26 33 25 12 41 59 25 64 47 11 8 70 54 58 1 2 8 13 20 30 36 36 46 50 52 59 64 72 77 86 89 90 93 93 92 92 85 63 332 269 263 259 251 242 238 245 257 268 279
68 15 34 352 8 39 1 56 34 36 32 62 39 331 9 60 61 53 13 349 354 3 9 22 34 47 53 58 61 62 61 68 76 78 76 72 72 68 64 54 41 12 334 307 290 278 267 259 253 255 261 270 280 288
51 355 8 23 356 333 61 59 53 55 55 30 351 1 45 64 61 1 354 360 357 11 28 40 50 57 59 59 56 55 59 60 65 64 60 52 45 38 26 10 358 340 324 316 305 297 285 271 267 268 272 274 283 289
59 26 17 341 27 31 46 46 36 29 8 349 316 36 72 47 1 334 342 1 30 44 49 55 59 58 56 55 50 43 43 51 62 54 46 45 40 35 21 5 355 345 335 319 307 298 292 287 282 280 281 284 286 285
31 353 357 26 49 47 41 26 38 14 346 2 47 68 76 52 35 42 45 54 59 59 61 64 63 61 64 60 51 46 44 45 43 42 39 28 6 343 343 336 326 317 309 302 297 294 291 288 286 284 284 287 288 288
0 2 17 42 50 35 11 36 56 71 71 77 93 102 93 76 69 73 75 73 73 71 67 65 66 64 54 43 38 32 30 27 23 13 359 343 335 331 329 325 319 313 307 303 299 294 288 286 284 281 283 285 287 288
352 352 61 54 74 46 74 85 84 81 86 95 110 105 103 94 64 59 57 56 56 56 54 46 40 32 24 16 4 353 344 339 348 345 331 320 315 313 312 311 311 308 305 303 300 296 292 289 286 285 285 285 286 288
13 27 48 77 66 56 59 46 73 93 96 113 118 119 102 86 82 49 36 35 33 29 22 14 10 9 4 354 347 333 316 309 313 317 315 311 307 306 304 302 302 299 296 297 297 296 295 295 295 294 293 292 293 294
36 33 54 74 65 43 11 21 90 101 91 102 92 94 79 77 95 143 3 21 17 5 359 350 340 333 331 328 328 318 303 304 306 307 307 305 300 297 297 299 295 296 298 297 297 297 296 295 294 293 294 294 295 295
Wind_Speed_850mb
58 59 56 65 58 57 56 58 53 52 54 55 52 48 44 38 39 34 29 19 27 10 7 10 12 13 16 21 9 15 12 1 5 9 8 8 6 11 5 6 15 15 16 8 5 3 18 24 13 18 11 28 35 33
59 56 60 62 59 56 57 59 58 53 53 53 55 52 49 47 46 48 38 31 30 16 7 25 35 29 28 26 30 47 5 14 20 6 2 6 4 3 6 7 2 5 14 12 21 14 1 43 15 43 35 29 32 28
65 64 60 60 58 55 54 57 61 63 65 65 49 55 52 48 48 55 54 44 41 24 22 35 34 43 39 30 31 23 14 17 19 11 11 4 7 7 10 10 4 9 11 7 9 8 12 23 33 34 39 56 53 46
68 63 66 60 61 58 57 58 59 59 58 56 56 55 50 47 49 56 64 58 51 14 6 14 25 43 39 49 33 34 16 34 25 19 9 5 6 12 6 5 8 12 19 11 5 8 10 31 39 43 50 57 52 53
60 59 57 60 64 66 63 59 54 54 61 57 57 52 53 54 50 50 57 65 62 40 13 7 17 29 35 51 49 43 33 39 30 10 5 5 9 8 2 4 9 20 13 9 9 25 23 29 48 47 46 53 58 60
46 49 49 49 60 64 62 57 56 48 51 60 55 56 53 56 51 49 34 71 74 67 11 3 12 22 26 36 53 48 44 41 28 16 8 10 12 10 7 7 40 42 19 39 21 52 46 53 55 56 58 64 65 65
40 47 52 58 59 64 59 60 58 54 46 51 57 58 59 61 53 60 14 10 69 68 15 3 6 14 38 39 36 47 45 28 25 14 10 14 9 24 6 13 54 37 42 52 61 63 43 65 49 57 52 50 51 53
47 49 48 62 71 73 61 57 56 51 54 41 35 33 36 32 44 31 42 12 37 55 15 6 6 4 25 16 10 27 22 24 15 16 6 7 15 10 12 26 45 50 53 45 59 59 67 66 59 62 58 60 61 64
47 50 45 49 72 58 53 48 46 54 51 41 36 27 28 20 15 11 9 18 49 24 11 6 12 9 28 12 14 16 20 7 19 11 9 21 7 13 20 33 38 67 62 71 66 56 54 52 54 46 43 50 57 56
30 38 33 41 51 59 53 50 50 55 51 46 46 17 13 15 19 21 15 13 19 13 11 4 13 4 17 6 4 12 12 7 9 10 22 9 13 68 44 33 56 64 67 74 63 63 65 61 58 51 46 46 48 48
17 39 48 51 63 56 55 54 49 39 39 42 15 14 19 39 28 17 9 6 5 6 19 14 21 7 22 7 6 11 5 6 6 8 12 7 9 36 63 75 89 85 79 79 74 73 64 58 56 52 49 46 42 42
29 22 40 41 60 56 49 46 48 56 24 25 21 27 30 16 13 11 11 6 7 11 11 10 19 17 19 13 7 11 7 5 10 12 7 6 14 53 58 64 81 88 88 88 85 79 67 60 54 49 39 36 35 33
25 35 43 42 37 36 39 40 40 44 40 30 12 12 11 13 12 14 14 3 8 10 25 21 6 20 12 12 6 6 11 12 14 8 8 12 34 58 63 70 72 73 75 72 71 62 53 46 39 34 31 32 32 30
15 16 25 28 27 25 27 28 30 34 28 9 10 12 11 6 7 5 9 10 10 20 45 36 12 8 11 8 6 9 8 8 9 10 14 14 46 46 36 45 52 58 62 60 54 45 41 37 34 31 31 28 26 22
18 19 17 15 15 18 21 23 29 43 18 13 12 9 9 6 4 3 8 9 9 20 47 15 10 10 4 6 8 5 8 8 11 12 8 3 8 21 27 34 41 45 43 41 38 35 34 33 30 26 23 20 17 14
21 14 14 9 8 12 18 22 25 32 8 15 9 6 3 6 4 5 9 10 15 35 23 10 7 7 9 7 10 13 13 12 9 5 13 17 15 14 15 19 22 26 29 32 32 30 26 23 21 20 17 14 11 9
16 15 2 4 8 10 14 19 14 8 4 3 4 9 8 7 9 9 9 11 29 24 4 4 10 10 5 5 6 8 9 4 8 15 19 19 16 13 9 7 9 14 20 24 24 24 23 21 18 18 17 14 10 7
2 6 12 18 18 14 15 16 8 3 8 10 3 7 10 10 12 15 13 22 13 9 6 3 5 4 7 6 3 5 9 14 13 14 15 14 11 7 2 4 11 17 21 22 22 23 22 20 18 16 13 8 5 4
4 5 9 9 12 13 10 8 4 7 5 5 8 11 8 9 15 8 10 11 14 14 12 6 2 3 4 6 6 11 17 21 17 19 14 10 6 4 6 12 16 19 20 23 23 21 20 18 15 12 9 6 5 4
16 12 5 2 19 10 8 7 7 9 4 5 9 10 11 9 10 15 13 12 14 9 13 9 6 6 6 9 13 17 19 21 17 18 14 7 2 4 7 9 10 15 20 21 19 17 15 12 10 7 5 3 2 2
19 14 5 5 5 9 10 6 9 8 9 10 12 7 9 12 10 11 15 16 19 13 6 11 9 14 12 11 11 12 12 13 12 12 16 14 4 6 9 11 13 14 13 15 13 13 10 8 5 5 5 4 4 4
18 13 8 8 6 8 12 13 10 8 7 7 7 7 10 5 8 11 10 25 13 12 14 19 21 20 14 9 9 10 11 12 11 9 8 5 8 10 12 14 14 12 11 10 10 9 7 6 5 5 6 6 5 6
21 19 8 8 8 10 6 8 6 8 5 3 4 5 6 5 8 10 12 13 11 25 27 23 22 18 13 12 12 12 12 10 10 10 10 5 9 8 10 9 8 7 4 6 5 6 7 6 7 7 7 7 6 7
17 11 14 12 17 4 5 9 8 7 8 7 6 6 6 6 7 11 8 7 17 27 29 23 24 16 11 12 14 14 13 14 15 13 12 13 7 7 8 8 7 6 6 5 4 4 6 7 8 9 10 9 9 11
10 21 15 13 16 10 11 7 9 7 7 8 5 6 5 10 6 8 5 14 31 37 34 27 22 22 21 18 17 18 18 18 19 20 21 21 17 14 12 9 6 3 2 1 4 6 8 9 10 11 12 13 14 15
16 19 13 10 11 8 7 6 8 6 5 6 6 7 7 5 9 7 4 22 28 34 33 29 27 24 27 26 24 22 20 18 17 15 17 16 13 10 9 7 4 5 7 8 10 10 11 12 14 15 16 17 19 21
12 10 15 18 9 6 6 10 11 9 9 9 6 9 6 9 8 5 14 23 29 25 22 22 22 24 25 23 21 19 18 16 14 13 13 12 12 12 11 10 11 11 12 13 13 13 15 18 20 21 22 22 23 26
12 21 11 24 14 20 6 7 9 9 6 14 3 11 7 6 1 14 11 22 18 20 21 20 19 20 21 21 19 16 13 12 11 12 11 11 11 11 12 13 14 14 14 14 16 17 18 19 22 24 27 29 28 27
13 32 12 9 10 16 15 10 6 9 12 6 4 5 6 8 13 18 22 22 20 21 22 22 24 23 25 25 24 24 21 17 10 11 11 12 10 13 17 16 17 18 19 20 22 24 24 25 27 31 33 34 34 36
18 30 11 11 10 10 13 14 13 22 32 33 32 40 42 44 48 40 39 37 37 39 37 34 30 24 24 22 21 20 22 24 23 22 21 20 24 25 26 25 25 26 27 29 29 29 30 33 35 37 41 44 46 50
22 16 8 14 9 9 13 19 25 31 36 42 46 43 38 32 48 49 45 40 37 34 31 33 30 27 26 30 31 26 23 20 27 29 29 29 31 32 32 33 34 36 39 41 42 44 46 48 49 52 54 56 57 59
21 18 7 7 4 9 9 6 7 10 12 18 14 11 10 10 11 20 54 42 35 37 34 32 34 34 32 32 32 30 31 37 42 46 43 42 42 42 43 45 44 45 47 48 49 51 52 54 55 55 57 58 59 59
7 14 14 8 5 5 12 8 3 7 7 6 5 7 10 7 7 8 12 54 45 33 34 32 33 38 44 51 45 36 37 45 50 49 47 44 43 43 45 47 52 54 55 57 57 56 56 57 59 60 61 63 64 64
Wind_Direction_850mb
271 254 244 249 241 238 238 235 234 232 229 232 237 232 231 223 224 220 220 215 215 205 231 221 195 161 159 177 149 155 102 136 101 179 165 167 161 202 128 177 175 159 163 194 84 184 269 164 116 164 190 156 171 191
264 262 248 243 240 237 236 236 234 230 231 230 225 227 222 219 213 217 219 204 205 223 270 241 233 225 218 220 187 172 206 155 165 119 152 93 142 136 145 217 147 223 193 182 186 205 80 180 201 219 241 229 220 230
256 257 252 243 239 236 239 236 233 237 237 225 221 226 220 217 216 216 220 212 202 219 257 255 241 227 226 213 210 174 215 175 187 152 144 143 189 130 160 228 139 250 166 197 109 206 214 215 228 251 256 251 256 260
249 255 245 244 238 235 240 238 234 231 234 228 219 217 221 219 214 215 216 220 212 161 197 258 234 232 227 221 220 216 226 187 176 161 118 145 164 185 192 166 185 195 142 152 265 256 198 236 244 266 268 261 263 267
238 248 246 240 239 232 235 231 229 228 232 230 226 222 225 223 224 223 223 225 223 197 194 230 231 223 218 211 216 224 221 194 168 141 106 199 149 128 336 63 254 174 183 160 207 231 230 252 273 273 268 269 271 275
246 253 252 236 235 231 229 220 227 229 227 227 225 223 222 225 224 218 219 211 219 211 221 202 225 199 199 203 214 219 213 202 188 161 180 193 169 148 135 201 250 233 224 229 221 259 258 263 270 275 274 276 278 280
261 254 249 246 234 227 220 217 225 225 228 214 219 222 222 213 204 199 196 198 205 206 201 180 290 205 206 197 200 208 208 204 207 191 183 152 176 169 127 229 251 249 251 245 249 253 256 261 260 285 283 287 287 281
269 251 254 248 238 214 218 219 214 214 222 201 196 205 204 174 205 217 205 206 188 188 186 179 235 178 181 168 154 190 191 192 214 195 177 157 142 172 233 246 251 255 256 252 252 247 256 268 275 278 283 284 281 283
261 241 241 255 199 201 202 202 204 204 200 199 197 188 181 203 202 174 245 185 178 188 174 154 157 208 166 139 149 151 167 167 190 204 189 161 172 218 220 211 221 247 239 250 263 263 260 260 265 271 275 274 273 276
245 224 219 212 215 194 197 199 194 180 181 178 173 162 161 184 162 158 161 202 206 231 172 174 130 151 162 99 103 134 178 194 195 211 151 207 230 241 236 236 250 251 256 257 250 252 254 257 261 274 276 277 273 273
247 226 227 227 193 187 186 182 182 188 180 175 148 146 141 152 156 174 190 172 215 174 174 171 170 141 182 128 159 200 168 162 185 233 182 197 256 244 239 237 246 248 251 255 256 262 267 269 271 272 274 271 262 258
52 137 172 150 150 161 163 166 164 179 161 161 142 132 147 177 179 180 178 157 173 212 176 160 178 168 155 155 120 173 168 174 222 142 158 229 248 250 250 248 249 254 256 260 264 265 265 265 265 266 255 247 244 242
35 90 100 104 115 124 144 156 169 178 176 156 154 149 170 175 212 186 170 191 182 172 170 165 157 144 131 162 126 166 181 206 114 179 218 226 241 247 248 252 252 254 258 261 261 257 252 251 250 240 237 234 231 228
85 77 98 119 132 146 159 167 176 185 176 183 173 184 189 194 255 191 185 176 200 169 164 149 124 140 149 165 160 187 186 127 193 195 225 236 244 258 255 251 252 255 255 255 250 244 238 231 227 223 220 218 218 221
97 99 108 116 151 169 177 182 184 188 197 198 180 207 191 200 121 157 145 133 153 165 154 113 96 125 152 190 187 130 171 208 203 224 231 9 300 274 269 266 258 252 247 238 232 226 220 215 211 208 203 205 213 224
76 83 81 93 132 166 189 193 196 204 217 184 188 124 75 79 318 145 154 126 140 155 135 130 143 176 191 185 184 199 172 205 239 242 339 335 326 314 291 280 270 254 237 225 215 207 203 199 194 190 189 195 203 219
43 48 352 221 238 217 205 198 205 256 313 174 107 134 150 114 164 137 129 135 150 158 151 157 191 196 115 197 207 171 201 247 321 335 340 338 344 342 315 278 237 220 202 191 189 181 178 180 179 178 180 183 194 218
287 300 286 248 232 213 188 181 188 80 59 24 29 5 62 72 108 118 110 134 150 117 109 123 3 190 183 190 231 15 357 342 346 353 343 342 352 342 349 154 168 168 168 163 166 162 158 165 169 174 179 178 192 239
127 205 257 253 205 170 164 162 146 106 90 95 86 91 71 79 81 89 128 133 127 127 132 96 104 31 61 40 5 359 351 358 330 328 346 354 5 60 119 140 148 156 156 159 154 152 152 158 164 166 171 183 208 248
169 196 223 51 183 164 128 87 114 113 124 101 99 81 86 78 88 69 73 97 94 64 45 37 40 40 355 344 338 320 329 331 328 328 326 337 359 112 120 121 140 151 155 147 146 149 154 162 169 178 198 221 241 269
230 249 261 200 163 92 92 76 72 78 96 102 110 94 82 90 65 51 38 41 61 36 56 39 8 349 339 330 338 344 340 332 329 321 311 324 268 169 160 158 165 163 148 136 141 150 162 171 182 203 215 227 236 256
204 221 175 152 89 76 77 54 85 91 84 90 75 66 63 58 39 27 47 52 57 34 5 347 353 352 1 4 5 1 359 0 0 350 351 299 210 181 168 161 158 155 147 146 154 163 179 187 200 222 234 240 251 261
140 141 99 67 88 57 38 49 68 41 89 65 70 73 41 54 45 44 72 60 64 10 2 1 359 356 9 16 13 10 12 20 35 52 83 87 143 153 157 157 151 140 149 167 177 189 197 210 227 243 251 255 258 267
114 65 40 42 34 49 40 36 41 51 56 40 49 71 34 19 37 63 75 60 3 359 8 12 10 28 42 30 24 29 39 49 54 59 75 81 84 123 132 130 130 137 143 162 188 237 249 249 251 246 243 246 261 272
87 15 23 12 18 26 33 25 12 41 59 25 64 47 11 8 70 54 58 1 2 8 13 20 30 36 36 46 50 52 59 64 72 77 86 89 90 93 93 92 92 85 63 332 269 263 259 251 242 238 245 257 268 279
68 15 34 352 8 39 1 56 34 36 32 62 39 331 9 60 61 53 13 349 354 3 9 22 34 47 53 58 61 62 61 68 76 78 76 72 72 68 64 54 41 12 334 307 290 278 267 259 253 255 261 270 280 288
51 355 8 23 356 333 61 59 53 55 55 30 351 1 45 64 61 1 354 360 357 11 28 40 50 57 59 59 56 55 59 60 65 64 60 52 45 38 26 10 358 340 324 316 305 297 285 271 267 268 272 274 283 289
59 26 17 341 27 31 46 46 36 29 8 349 316 36 72 47 1 334 342 1 30 44 49 55 59 58 56 55 50 43 43 51 62 54 46 45 40 35 21 5 355 345 335 319 307 298 292 287 282 280 281 284 286 285
31 353 357 26 49 47 41 26 38 14 346 2 47 68 76 52 35 42 45 54 59 59 61 64 63 61 64 60 51 46 44 45 43 42 39 28 6 343 343 336 326 317 309 302 297 294 291 288 286 284 284 287 288 288
0 2 17 42 50 35 11 36 56 71 71 77 93 102 93 76 69 73 75 73 73 71 67 65 66 64 54 43 38 32 30 27 23 13 359 343 335 331 329 325 319 313 307 303 299 294 288 286 284 281 283 285 287 288
352 352 61 54 74 46 74 85 84 81 86 95 110 105 103 94 64 59 57 56 56 56 54 46 40 32 24 16 4 353 344 339 348 345 331 320 315 313 312 311 311 308 305 303 300 296 292 289 286 285 285 285 286 288
13 27 48 77 66 56 59 46 73 93 96 113 118 119 102 86 82 49 36 35 33 29 22 14 10 9 4 354 347 333 316 309 313 317 315 311 307 306 304 302 302 299 296 297 297 296 295 295 295 294 293 292 293 294
36 33 54 74 65 43 11 21 90 101 91 102 92 94 79 77 95 143 3 21 17 5 359 350 340 333 331 328 328 318 303 304 306 307 307 305 300 297 297 299 295 296 298 297 297 297 296 295 294 293 294 294 295 295